sat.trackr.live / text

‹ back to catalog

PANDORA

NORAD 67395 · 2026-004AJ

PAYLOAD ACTIVE UNKNOWN

§ Identity

Operator
Country
US
Launch date
2026-01-11
Launch site
AFWTR
Launch vehicle
Mass (kg)
RCS (m²)

External: N2YO · Heavens-Above · Gunter

§ Orbital elements

Epoch: 2026-05-24T23:18:42.056640Z

Period
96.77 min
Inclination
97.8037°
Eccentricity
0.0004777
Mean motion
14.88023907 rev/d
Perigee alt
600.8 km
Apogee alt
607.4 km
Semi-major
6,982.2 km
B*
7.9658e-5
RAAN
143.9918°
Arg perigee
188.7714°
Mean anomaly
171.3420°
Rev number
1,982

§ Raw data

PANDORA1 67395U 26004AJ  26144.97132010  .00000677  00000+0  79658-4 0  99902 67395  97.8037 143.9918 0004777 188.7714 171.3420 14.88023907 19822

JSON: /api/v1/satellites/67395 · /tle

For live sub-satellite position, see the globe view (requires WebGL).

§ Visibility from observer

Set your observer location to see the next 7 days of passes ≥ 10°. The values pass through the URL so the page stays shareable.

No JS? Fill the form by hand. The geolocation button needs JavaScript.